Weather History for Charlotte, NC

Change the Weather History Date:

Tuesday, July 17, 2012

  Actual Average Record
Temperature  
Mean Temperature 81 °F 79 °F  
Max Temperature 94 °F 89 °F 100 °F (1986)
Min Temperature 68 °F 68 °F 62 °F (1886)
Degree Days  
Heating Degree Days 0 0  
Month to date heating degree days 0 0  
Since 1 June heating degree days 0 3  
Since 1 July heating degree days 0 0  
Cooling Degree Days 16 14  
Month to date cooling degree days 296 231  
Year to date cooling degree days 923 705  
Since 1 June cooling degree days 594 542  
Growing Degree Days 30 (Base 50)    
Moisture  
Dew Point 69 °F    
Average Humidity 69    
Maximum Humidity 97    
Minimum Humidity 41    
Precipitation  
Precipitation T in 0.12 in 4.14 in (2004)
Month to date precipitation 3.47 1.89  
Year to date precipitation 19.55 22.59  
Snow  
Snow 0.00 in 0.00 in 0.00 in ()
Month to date snowfall 0.0 0.0  
Since 1 June snowfall 0.0 0.0  
Since 1 July snowfall 0.0 0.0  
Snow Depth 0.00 in    
Sea Level Pressure  
Sea Level Pressure 29.96 in    
Wind  
Wind Speed 2 mph (West)    
Max Wind Speed 17 mph    
Max Gust Speed 22 mph    
Visibility 10 miles    
Events      
T = Trace of Precipitation, MM = Missing Value Source: NWS Daily Summary

Daily Weather History Graph

Daily Weather History Graph

Search for Another Location

Airport:

Trip Planner

Search our weather history database for the weather conditions in past years. The results will help you decide how hot, cold, wet, or windy it might be!

Date:

Astronomy

Jul. 17, 2012 Rise Set
Actual Time 6:22 AM EDT 8:37 PM EDT
Civil Twilight 5:53 AM EDT 9:06 PM EDT
Nautical Twilight 5:17 AM EDT 9:41 PM EDT
Astronomical Twilight 4:39 AM EDT 10:20 PM EDT
Moon 4:57 AM EDT (7/17) 7:26 PM EDT (7/17)
Length of Visible Light 15h 12m
Length of Day
14h 15m
Waning Crescent, 2% of the Moon is Illuminated
Jul 17
Waning Crescent
Jul 19
New
Jul 26
First Quarter
Aug 1
Full
Aug 9
Last Quarter

Hourly Weather History & Observations

Time (EDT) Temp. Heat Index Dew Point Humidity Pressure Visibility Wind Dir Wind Speed Gust Speed Precip Events Conditions
12:52 AM 72.0 °F - 70.0 °F 93% 29.98 in 10.0 mi Calm Calm - N/A   Mostly Cloudy
1:52 AM 71.1 °F - 69.1 °F 93% 29.97 in 10.0 mi Calm Calm - N/A   Scattered Clouds
2:52 AM 71.1 °F - 69.1 °F 93% 29.96 in 10.0 mi Calm Calm - N/A   Mostly Cloudy
3:52 AM 71.1 °F - 68.0 °F 90% 29.94 in 10.0 mi Calm Calm - N/A   Mostly Cloudy
4:52 AM 69.1 °F - 66.9 °F 93% 29.94 in 10.0 mi NNW 3.5 mph - N/A   Scattered Clouds
5:52 AM 69.1 °F - 68.0 °F 96% 29.97 in 9.0 mi Calm Calm - N/A   Partly Cloudy
6:52 AM 69.1 °F - 68.0 °F 96% 29.99 in 9.0 mi Calm Calm - N/A   Partly Cloudy
7:52 AM 73.0 °F - 70.0 °F 90% 29.99 in 10.0 mi Calm Calm - N/A   Partly Cloudy
8:52 AM 77.0 °F - 70.0 °F 79% 30.00 in 10.0 mi WNW 3.5 mph - N/A   Partly Cloudy
9:52 AM 82.0 °F 86.3 °F 71.1 °F 69% 30.00 in 10.0 mi Calm Calm - N/A   Scattered Clouds
10:52 AM 86.0 °F 91.5 °F 71.1 °F 61% 29.99 in 10.0 mi Calm Calm - N/A   Clear
11:52 AM 88.0 °F 92.9 °F 70.0 °F 55% 29.99 in 10.0 mi Calm Calm - N/A   Partly Cloudy
12:52 PM 89.1 °F 93.7 °F 69.1 °F 52% 29.98 in 10.0 mi North 5.8 mph - N/A   Partly Cloudy
1:52 PM 91.0 °F 95.6 °F 69.1 °F 48% 29.97 in 10.0 mi Calm Calm - N/A   Clear
2:52 PM 91.0 °F 93.8 °F 66.0 °F 44% 29.94 in 10.0 mi Calm Calm - N/A   Scattered Clouds
3:52 PM 93.0 °F 96.4 °F 66.9 °F 42% 29.93 in 10.0 mi Variable 4.6 mph - N/A   Scattered Clouds
4:52 PM 93.0 °F 95.9 °F 66.0 °F 41% 29.91 in 10.0 mi NW 4.6 mph - N/A   Scattered Clouds
5:52 PM 91.9 °F 95.9 °F 68.0 °F 45% 29.91 in 10.0 mi NNW 4.6 mph - N/A   Mostly Cloudy
6:52 PM 84.0 °F 88.4 °F 70.0 °F 63% 29.92 in 10.0 mi SSE 12.7 mph - N/A   Overcast
7:52 PM 82.9 °F 87.0 °F 70.0 °F 65% 29.92 in 10.0 mi South 8.1 mph - 0.00 in   Overcast
8:52 PM 82.0 °F 85.5 °F 69.1 °F 65% 29.94 in 10.0 mi South 3.5 mph - N/A   Overcast
9:52 PM 80.1 °F 83.2 °F 70.0 °F 71% 29.95 in 10.0 mi Calm Calm - 0.00 in   Mostly Cloudy
10:52 PM 79.0 °F - 70.0 °F 74% 29.96 in 10.0 mi Calm Calm - N/A   Partly Cloudy
11:52 PM 78.1 °F - 71.1 °F 79% 29.96 in 10.0 mi South 3.5 mph - N/A   Partly Cloudy